Regional Weather Roundup
Issued by NWS Green Bay, WI

Home | Current Version | Previous Version | Text Only | Print | Product List | Glossary On
Versions: 1 2 3 4 5 6 7 8 9 10 11 12 13 14 15 16 17 18 19 20 21 22 23 24 25 26 27 28 29 30 31 32 33 34 35 36 37 38 39 40 41 42 43 44 45 46 47 48 49 50
000
ASUS43 KGRB 300601
RWRGRB

NORTH-CENTRAL AND NORTHEAST WISCONSIN REGIONAL WEATHER ROUNDUP
NATIONAL WEATHER SERVICE GREEN BAY WI
100 AM CDT TUE MAY 30 2017

WIZ005-009-010>012-018-019-300700-
NORTH CENTRAL WISCONSIN

CITY           SKY/WX    TMP DP  RH WIND       PRES   REMARKS
IRONWOOD       CLOUDY    50  46  86 W5        29.76S
MANITOWISH WTR NOT AVBL
ARBOR VITAE    NOT AVBL
EAGLE RIVER    NOT AVBL
LAND O LAKES   CLOUDY    48  47  93 W3        29.78R
RHINELANDER    MOCLDY    51  49  92 W10       29.79S
PHILLIPS       CLOUDY    48  48 100 SW6       29.79F
ANTIGO         NOT AVBL
TOMAHAWK       NOT AVBL
MERRILL        CLOUDY    51  50  95 W8        29.81S
$$

WIZ013-073-300700-
NORTHEAST WISCONSIN

CITY           SKY/WX    TMP DP  RH WIND       PRES   REMARKS
IRON MOUNTAIN  CLOUDY    53  49  86 W5        29.73S
MARINETTE      NOT AVBL
$$

WIZ017-030-035>037-045-300700-
CENTRAL WISCONSIN

CITY           SKY/WX    TMP DP  RH WIND       PRES   REMARKS
MEDFORD        NOT AVBL
WAUSAU         CLOUDY    52  50  93 W9        29.80S
MOSINEE        NOT AVBL
MARSHFIELD     CLEAR     50  46  86 W8        29.82S
WISC RAPIDS    PTCLDY    51  48  89 SW6       29.84F
STEVENS POINT  NOT AVBL
WAUPACA        NOT AVBL
SHAWANO        CLOUDY    55  50  84 W7        29.80R
CLINTONVILLE   CLOUDY    54  46  76 W6        29.81S
WAUTOMA        CLEAR     52  49  89 W6        29.84S
$$

WIZ038-039-048-051-300700-
FOX VALLEY

CITY           SKY/WX    TMP DP  RH WIND       PRES   REMARKS
NWS GREEN BAY  CLEAR     55  51  86 W13       29.80S
APPLETON       NOT AVBL
OSHKOSH        PTCLDY    54  49  83 VRB5      29.81F
FOND DU LAC    PTCLDY    53  47  79 SW3       29.83S
$$

WIZ022-050-052-300700-
EAST CENTRAL WISCONSIN

CITY           SKY/WX    TMP DP  RH WIND       PRES   REMARKS
EPHRAIM        NOT AVBL
WASHINGTON ISL NOT AVBL
STURGEON BAY   PTCLDY    53  49  86 SW8       29.78S
MANITOWOC      NOT AVBL
SHEBOYGAN      CLEAR     51  49  92 W7        29.82S
$$

LMZ563-521-522-541>543-300700-
LAKESHORE

STATION/POSITION TIME  TEMP    WIND        PRES    VSBY  WAVE
                       AIR SEA DIR/SP/G                  HT/PER
                 (UTC) (F)     (DEG/KT/KT) (MB)    (MI)  (FT/S)
SHEBOYGAN LKSHOR 0500   57     250/ 10/ 12 1009.6F
KEWAUNEE LKSHORE 0530   56     260/  7/ 10 1008.5F
NORTHPORT PIER   0540   55     220/  4/ 10 1007.5R
N MID LAKE BUOY  0450   46 41  220/ 10/ 12 1007.9R         2/ 4
CHAMBERS ISLAND  0540   53     210/  5/  8 1007.5S
MENOMINEE LKSHOR 0524          230/  9/ 12 1007.2
$$




USA.gov is the U.S. government's official web portal to all federal, state and local government web resources and services.